ATLAS 5 CENTAUR DEB, 46857

Orbit data source: Space-Track

ATLAS 5 CENTAUR DEB, 46857 is space debris in HEO originally from a launch on Wed, 17 Oct 2018 UTC launched from the Air Force Eastern Test Range (AFETR). Debris objects in space refer to the collection of defunct objects orbiting the Earth. Examples of debris include non-operational satellites, rocket bodies, and fragments generated from explosions, collisions, or faulty payload assembly.

Loading next visibility...
Identifier
46857, 2018-079DN
Orbit
HEO
Country
Flag of USUS
Related business
Flag of USUnited Launch Alliance/Lockheed Martin (US)
Manufacturer
ULA Decatur
Mission
Spacecraft
Bus & Motor
Unknown
Mass
Unknown
Launch date (UTC)
2018-10-17 (7 years ago)
Launch vehicle
Unknown
Launch site
Air Force Eastern Test Range (AFETR)
Object type
Payload
Rocket body
Debris
Shape & HBR
Unknown shape, 1.1 m
Radar Cross Section
RCS unknown

Expand to show TLE details & history
Last TLE update: 1 day ago

TLE from 1 day ago
0 ATLAS 5 CENTAUR DEB
1 46857U 18079DN  25292.51085365 -.00000055  00000-0  00000-0 0  9999
2 46857  12.0983  91.5553 4665800 201.9805 128.8331  1.69098111 30653
Epoch: 2025-10-19T12:15Z
TLE epoch observation values (Epoch: 2025-10-19T12:15:37.755Z)
Latitude
-0.00005°
Longitude
-120.58514°
Altitude
34,632.307 km
Speed
2.459 km/s
True Right ascension
06h 06m 11s
True Declination
0° 00' 00"
Sunlit
Object was in daylight at epoch
Visualization orbit readout
Latitude
Unknown
Longitude
Unknown
Altitude
Unknown
Speed
Unknown
Apparent Right ascension
Unknown
Apparent Declination
Unknown
Sunlit
N/A
Visualization observer readout
Local Sidereal Time
11:38:06
Azimuth
Unknown
Elevation
Unknown
Doppler factor
Unknown
Orbital elements
Apogee altitude
37,271.22 km
Perigee altitude
9,497.874 km
Semi-major axis
29,762.684 km
Eccentricity
0.46658
Inclination
12.0983°
RAAN
91.5553°
Arg. of periapsis
201.9805°
True anomaly
158.08046°
Mean anomaly
128.8331°
Eccentric anomaly
144.3964°
Mean motion
0.4227 °/min
Orbital period
851.66 mins
BSTAR
0
Loading maneuver chart data...
Computing Atmospheric mass density...

Documentation

Showing up to 5 results
|